User: anonymous   Login
Location: Bergnershof
(48.9468°N, 10.9431°E)
Time: 14:36:33
(UTC+00:00)
Language:

COSMOS 2428 - Orbit

View from above orbital plane
View from above orbital plane
View from above satellite
View from above satellite

Ground track
Ground track

The orbit data is extracted from the following two-line orbital elements,

1 31792U 07029A   21131.92936643  .00000220  00000-0  14551-3 0  9993
2 31792  70.8948 302.7296 0010120 279.9368  80.0610 14.12261893715248
Epoch (UTC): 11 May 2021 22:18:17
Eccentricity: 0.0010120
inclination: 70.8948°
perigee height: 844 km
apogee height: 859 km
right ascension of ascending node: 302.7296°
argument of perigee: 279.9368°
revolutions per day: 14.12261893
mean anomaly at epoch: 80.0610°
orbit number at epoch: 71524

The dashed part of the orbit path shows where the satellite is in the earth's shadow,  

DLR